| time (UTC) | temp F | wind direction | speed MPH | gust MPH | rain 1hr in | rain 24hr in | rain mn in | humidity % | barometer mb |
| 20260502194548 | 71 | 240 | 7.0 | 16.0 | 0.00 | 0.00 | 0.00 | 41 | 1008.6 |
| 20260502193046 | 71 | 300 | 8.0 | 14.0 | 0.00 | 0.00 | 0.00 | 42 | 1008.7 |
| 20260502191555 | 71 | 303 | 9.0 | 16.0 | 0.00 | 0.00 | 0.00 | 42 | 1009.0 |
| 20260502184515 | 69 | 293 | 4.0 | 15.0 | 0.00 | 0.00 | 0.00 | 46 | 1009.6 |
| 20260502183005 | 68 | 246 | 7.0 | 15.0 | 0.00 | 0.00 | 0.00 | 47 | 1010.0 |
| 20260502181630 | 68 | 271 | 9.0 | 14.0 | 0.00 | 0.00 | 0.00 | 47 | 1010.2 |
| 20260502161510 | 63 | 231 | 6.0 | 14.0 | 0.00 | 0.00 | 0.00 | 55 | 1010.6 |
| 20260502151548 | 61 | 212 | 7.0 | 13.0 | 0.00 | 0.00 | 0.00 | 58 | 1010.1 |
| 20260502123155 | 56 | 229 | 7.0 | 13.0 | 0.00 | 0.01 | 0.00 | 67 | 1008.1 |
| 20260502121559 | 56 | 214 | 7.0 | 17.0 | 0.00 | 0.01 | 0.00 | 66 | 1008.1 |
| 20260502114558 | 56 | 209 | 5.0 | 14.0 | 0.00 | 0.01 | 0.00 | 68 | 1008.2 |
| 20260502114508 | 56 | 264 | 5.0 | 14.0 | 0.00 | 0.01 | 0.00 | 68 | 1008.2 |
| 20260502113156 | 56 | 229 | 6.0 | 12.0 | 0.00 | 0.01 | 0.00 | 67 | 1008.3 |
| 20260502111557 | 56 | 248 | 5.0 | 11.0 | 0.00 | 0.01 | 0.00 | 67 | 1008.2 |
| 20260502110157 | 56 | 234 | 6.0 | 13.0 | 0.00 | 0.01 | 0.00 | 67 | 1008.3 |
| 20260502104554 | 56 | 245 | 4.0 | 9.0 | 0.00 | 0.01 | 0.00 | 68 | 1008.5 |
| 20260502103155 | 56 | 240 | 3.0 | 8.0 | 0.00 | 0.01 | 0.00 | 68 | 1008.3 |
| 20260502101645 | 56 | 234 | 3.0 | 8.0 | 0.00 | 0.01 | 0.00 | 67 | 1008.2 |
| 20260502100122 | 56 | 246 | 0.0 | 0.0 | 0.00 | 0.01 | 0.00 | 67 | 1008.1 |
| 20260502091506 | 54 | 255 | 0.0 | 0.0 | 0.00 | 0.01 | 0.00 | 60 | 1008.0 |
| 20260502070026 | 56 | 260 | 0.0 | 0.0 | 0.00 | 0.82 | 0.00 | 61 | 1008.4 |
| 20260502064515 | 57 | 260 | 0.0 | 0.0 | 0.00 | 0.82 | 0.00 | 60 | 1008.2 |
| 20260502063008 | 59 | 258 | 0.0 | 0.0 | 0.00 | 0.82 | 0.00 | 58 | 1008.1 |
| 20260502061559 | 59 | 260 | 0.0 | 0.0 | 0.00 | 0.82 | 0.00 | 57 | 1008.1 |
| 20260502060059 | 60 | 260 | 0.0 | 0.0 | 0.00 | 0.82 | 0.00 | 57 | 1008.0 |
| 20260502054556 | 61 | 260 | 0.0 | 0.0 | 0.00 | 0.82 | 0.00 | 60 | 1008.0 |
| 20260502053056 | 62 | 259 | 0.0 | 0.0 | 0.00 | 0.82 | 0.00 | 61 | 1007.9 |
| 20260502051546 | 63 | 258 | 0.0 | 0.0 | 0.00 | 0.82 | 0.00 | 59 | 1007.8 |
| 20260502050044 | 63 | 269 | 0.0 | 0.0 | 0.00 | 0.83 | 0.00 | 58 | 1007.7 |
| 20260502044515 | 63 | 274 | 0.0 | 0.0 | 0.00 | 0.83 | 0.00 | 55 | 1007.7 |
| 20260502043113 | 63 | 260 | 0.0 | 0.0 | 0.00 | 0.83 | 0.00 | 56 | 1007.6 |
| 20260502041516 | 63 | 267 | 0.0 | 0.0 | 0.00 | 0.83 | 0.00 | 57 | 1007.5 |
| 20260502040109 | 63 | 257 | 0.0 | 0.0 | 0.00 | 0.86 | 0.00 | 58 | 1007.5 |
| 20260502034555 | 63 | 257 | 0.0 | 0.0 | 0.00 | 0.86 | 0.00 | 56 | 1007.1 |
| 20260502033050 | 63 | 257 | 0.0 | 0.0 | 0.00 | 0.86 | 0.00 | 56 | 1007.0 |
| 20260502031547 | 64 | 260 | 0.0 | 0.0 | 0.00 | 0.86 | 0.00 | 55 | 1006.8 |
| 20260502030049 | 64 | 261 | 0.0 | 0.0 | 0.00 | 0.89 | 0.00 | 55 | 1006.7 |
| 20260502024522 | 65 | 304 | 0.0 | 0.0 | 0.00 | 0.89 | 0.00 | 55 | 1006.5 |
| 20260502023029 | 66 | 15 | 0.0 | 0.0 | 0.00 | 0.89 | 0.00 | 53 | 1006.4 |
| 20260502021513 | 67 | 15 | 0.0 | 0.0 | 0.00 | 0.89 | 0.00 | 50 | 1006.2 |
| 20260502020011 | 68 | 15 | 0.0 | 0.0 | 0.00 | 0.89 | 0.89 | 45 | 1006.1 |
| 20260502014551 | 69 | 15 | 0.0 | 0.0 | 0.00 | 0.89 | 0.89 | 43 | 1006.0 |
| 20260502013100 | 69 | 15 | 0.0 | 0.0 | 0.00 | 0.89 | 0.89 | 40 | 1005.9 |
| 20260502011536 | 69 | 15 | 0.0 | 1.0 | 0.00 | 0.89 | 0.89 | 38 | 1006.0 |
| 20260502010036 | 70 | 8 | 0.0 | 3.0 | 0.00 | 0.89 | 0.89 | 36 | 1005.8 |
| 20260502004535 | 72 | 15 | 2.0 | 6.0 | 0.00 | 0.89 | 0.89 | 33 | 1005.8 |
| 20260502003035 | 73 | 7 | 1.0 | 7.0 | 0.00 | 0.89 | 0.89 | 33 | 1005.7 |
| 20260502001533 | 73 | 37 | 2.0 | 7.0 | 0.00 | 0.89 | 0.89 | 32 | 1005.7 |
| 20260502000032 | 73 | 55 | 2.0 | 7.0 | 0.00 | 0.89 | 0.89 | 31 | 1005.7 |
| 20260501234536 | 74 | 20 | 2.0 | 8.0 | 0.00 | 0.89 | 0.89 | 30 | 1005.6 |
| 20260501233028 | 75 | 30 | 1.0 | 4.0 | 0.00 | 0.89 | 0.89 | 28 | 1005.6 |
| 20260501231609 | 75 | 75 | 1.0 | 6.0 | 0.00 | 0.89 | 0.89 | 29 | 1005.7 |
| 20260501230057 | 74 | 100 | 0.0 | 6.0 | 0.00 | 0.89 | 0.89 | 29 | 1005.7 |
| 20260501223051 | 73 | 44 | 0.0 | 3.0 | 0.00 | 0.89 | 0.89 | 29 | 1005.9 |
| 20260501221612 | 73 | 43 | 0.0 | 6.0 | 0.00 | 0.89 | 0.89 | 28 | 1006.0 |
| 20260501220058 | 75 | 37 | 1.0 | 4.0 | 0.00 | 0.89 | 0.89 | 27 | 1006.1 |
| 20260501214545 | 74 | 74 | 1.0 | 8.0 | 0.00 | 0.89 | 0.89 | 29 | 1006.3 |
| 20260501213042 | 74 | 72 | 0.0 | 3.0 | 0.00 | 0.89 | 0.89 | 26 | 1006.5 |
| 20260501211518 | 74 | 49 | 0.0 | 5.0 | 0.00 | 0.89 | 0.89 | 27 | 1006.7 |
| 20260501210013 | 73 | 89 | 1.0 | 7.0 | 0.00 | 0.89 | 0.89 | 32 | 1006.9 |
| 20260501204512 | 72 | 37 | 0.0 | 5.0 | 0.00 | 0.89 | 0.89 | 31 | 1007.1 |
| 20260501203011 | 72 | 91 | 2.0 | 6.0 | 0.00 | 0.89 | 0.89 | 34 | 1007.1 |
| 20260501201549 | 72 | 67 | 1.0 | 3.0 | 0.00 | 0.89 | 0.89 | 37 | 1007.2 |
| 20260501200045 | 70 | 77 | 1.0 | 5.0 | 0.00 | 0.89 | 0.89 | 39 | 1007.1 |